Location: Bothwell
(42.3833°S, 147.0000°E)
Time: 01:12:48
(UTC+10:00)

KKS-1 - Visible Passes

Search period start: 22 September 2023 00:00
Search period end: 02 October 2023 01:00
Orbit: 632 x 643 km, 98.2° (Epoch: 20 September)

Date Brightness Start Highest point End Pass type
(mag) Time Alt. Az. Time Alt. Az. Time Alt. Az.
25 Sep ? 21:39:06 10° S 21:39:06 10° S 21:39:07 10° S visible
26 Sep ? 22:01:55 11° S 22:01:55 11° S 22:02:01 10° S visible
29 Sep ? 21:32:49 12° S 21:32:49 12° S 21:33:10 10° S visible
30 Sep ? 21:55:36 13° S 21:55:36 13° S 21:56:07 10° S visible
01 Oct ? 23:18:23 13° SSW 23:18:23 13° SSW 23:18:51 10° SSW visible
